EHI
0 0 0 0 0 0 0 0 0 0 0 0 0 0 0 0 0 0 0 0 0 0 0 0 0 0 0 0 0 0 0 0 0 0 0 0 0 0 0 0 0 0 0 0
0 0 0 0 0 0 0 0 0 0 0 0 0 0 0 0 0 0 0 0 0 0 0 0 0 0 0 0 0 0 0 0 0 0 0 0 0 0 0 0 0 0 0 0
0 0 0 0 0 0 0 0 0 0 0 0 0 0 0 0 0 0 0 0 0 0 0 0 0 0 0 0 0 0 0 0 0 0 0 0 0 0 0 0 0 0 0 0
0 0 0 0 0 0 0 0 0 0 0 0 0 0 0 0 0 0 0 0 0 0 0 0 0 0 0 0 0 0 0 0 0 0 0 0 0 0 0 0 0 0 0 0
0 0 0 0 0 0 0 0 0 0 0 0 0 0 0 0 0 0 0 0 0 0 0 0 0 0 0 0 0 0 0 0 0 0 0 0 0 0 0 0 0 0 0 0
0 0 0 0 0 0 0 0 0 0 0 0 0 0 0 0 0 0 0 0 0 0 0 0 0 0 0 0 0 0 0 0 0 0 0 0 0 0 0 0 0 0 0 0
0 0 0 0 0 0 0 0 0 0 0 0 0 0 0 0 0 0 0 0 0 0 0 0 0 0 0 0 0 0 0 0 0 0 0 0 0 0 0 0 0 0 0 0
0 0 0 0 0 0 0 0 0 0 0 0 0 0 0 0 0 0 0 0 0 0 0 0 0 0 0 0 0 0 0 0 0 0 0 0 0 0 0 0 0 0 0 0
0 0 0 0 0 0 0 0 0 0 0 0 0 0 0 0 0 0 0 0 0 0 0 0 0 0 0 0 0 0 0 0 0 0 0 0 0 0 0 0 0 0 0 0
0 0 0 0 0 0 0 0 0 0 0 0 0 0 0 0 0 0 0 0 0 0 0 0 0 0 0 0 0 0 0 0 0 0 0 0 0 0 0 0 0 0 0 0
0 0 0 0 0 0 0 0 0 0 0 0 0 0 0 0 0 0 0 0 0 0 0 0 0 0 0 0 0 0 0 0 0 0 0 0 0 0 0 0 0 0 0 0
0 0 0 0 0 0 0 0 0 0 0 0 0 0 0 0 0 0 0 0 0 0 0 0 0 0 0 0 0 0 0 0 0 0 0 0 0 0 0 0 0 0 0 0
0 0 0 0 0 0 0 0 0 0 0 0 0 0 0 0 0 0 0 0 0 0 0 0 0 0 0 0 0 0 0 0 0 0 0 0 0 0 0 0 0 0 0 0
0 0 0 0 0 0 0 0 0 0 0 0 0 0 0 0 0 0 0 0 0 0 0 0 0 0 0 0 0 0 0 0 0 0 0 0 0 0 0 0 0 0 0 0
0 0 0 0 0 0 0 0 0 0 0 0 0 0 0 0 0 0 0 0 0 0 0 0 0 0 0 0 0 0 0 0 0 0 0 0 0 0 0 0 0 0 0 0
0 0 0 0 0 0 0 0 0 0 0 0 0 0 0 0 0 0 0 0 0 0 0 0 0 0 0 0 0 0 0 0 0 0 0 0 0 0 0 0 0 0 0 0
0 0 0 0 0 0 0 0 0 0 0 0 0 0 0 0 0 0 0 0 0 0 0 0 0 0 0 0 0 0 0 0 0 0 0 0 0 0 0 0 0 0 0 0
0 0 0 0 0 0 0 0 0 0 0 0 0 0 0 0 0 0 0 0 0 0 0 0 0 0 0 0 0 0 0 0 0 0 0 0 0 0 0 0 0 0 0 0
0 0 0 0 0 0 0 0 0 0 0 0 0 0 0 0 0 0 0 0 0 0 0 0 0 0 0 0 0 0 0 0 0 0 0 0 0 0 0 0 0 0 0 0
0 0 0 0 0 0 0 0 0 0 0 0 0 0 0 0 0 0 0 0 0 0 0 0 0 0 0 0 0 0 0 0 0 0 0 0 0 0 0 0 0 0 0 0
0 0 0 0 0 0 0 0 0 0 0 0 0 0 0 0 0 0 0 0 0 0 0 0 0 0 0 0 0 0 0 0 0 0 0 0 0 0 0 0 0 0 0 0
0 0 0 0 0 0 0 0 0 0 0 0 0 0 0 0 0 0 0 0 0 0 0 0 0 0 0 0 0 0 0 0 0 0 0 0 0 0 0 0 0 0 0 0
0 0 0 0 0 0 0 0 0 0 0 0 0 0 0 0 0 0 0 0 0 0 0 0 0 0 0 0 0 0 0 0 0 0 0 0 0 0 0 0 0 0 0 0
0 0 0 0 0 0 0 0 0 0 0 0 0 0 0 0 0 0 0 0 0 0 0 0 0 0 0 0 0 0 0 0 0 0 0 0 0 0 0 0 0 0 0 0
0 0 0 0 0 0 0 0 0 0 0 0 0 0 0 0 0 0 0 0 0 0 0 0 0 0 0 0 0 0 0 0 0 0 0 0 0 0 0 0 0 0 0 0
0 0 0 0 0 0 0 0 0 0 0 0 0 0 0 0 0 0 0 0 0 0 0 0 0 0 0 0 0 0 0 0 0 0 0 0 0 0 0 0 0 0 0 0
0 0 0 0 0 0 0 0 0 0 0 0 0 0 0 0 0 0 0 0 0 0 0 0 0 0 0 0 0 0 0 0 0 0 0 0 0 0 0 0 0 0 0 0
Wind_Speed
2 4 9 9 9 9 8 4 2 2 2 2 5 5 6 7 9 7 5 7 8 7 7 8 8 8 8 9 9 10 10 11 13 14 13 10 9 9 9 8 9 8 8 7
5 8 9 8 8 7 5 4 2 3 0 3 5 5 7 9 11 8 8 9 10 10 9 9 10 9 9 9 9 9 10 11 12 12 12 11 11 10 9 9 8 8 9 9
5 4 2 5 4 5 3 3 4 2 4 6 6 8 9 10 10 9 12 12 12 11 10 11 10 10 9 9 9 8 9 10 10 11 12 12 12 11 10 10 9 8 9 8
1 5 2 2 2 4 4 4 3 1 5 6 7 8 8 9 9 11 13 12 11 11 11 10 10 9 8 7 7 7 7 8 8 6 7 8 8 8 8 7 6 6 7 6
3 2 2 0 3 3 1 3 1 2 6 8 8 6 6 9 9 11 12 12 11 11 12 10 9 8 7 6 6 6 6 5 5 6 6 6 6 6 6 5 6 6 5 6
3 2 3 3 4 3 1 2 2 5 8 9 7 7 7 8 9 10 10 9 9 9 9 8 8 7 8 8 8 9 9 9 7 6 6 7 7 7 5 5 6 6 6 6
3 2 3 2 4 4 5 7 8 6 8 7 5 7 10 11 9 9 9 10 9 8 8 8 9 8 9 11 12 13 13 12 11 9 8 8 8 7 6 6 6 6 7 7
2 2 6 3 4 3 6 7 7 6 6 6 8 10 9 9 9 10 10 9 8 8 11 11 11 11 14 14 14 13 14 14 13 11 10 10 7 6 6 6 7 6 6 7
6 6 5 1 3 5 6 6 6 5 7 6 7 8 8 8 9 9 9 8 9 12 15 14 12 11 14 14 13 13 13 14 13 12 10 8 7 7 7 6 6 6 6 7
2 2 3 2 1 3 4 4 5 5 6 6 7 8 8 8 8 9 9 10 13 15 15 15 13 12 13 14 12 12 13 13 11 10 9 8 6 6 5 5 5 5 6 6
2 2 1 4 5 5 4 5 6 6 6 7 7 8 7 8 10 10 11 13 13 14 15 16 15 14 14 13 12 13 13 11 10 8 8 7 6 6 6 6 7 7 6 5
6 6 4 6 6 3 4 5 6 7 8 7 6 7 8 9 10 11 14 13 13 14 14 15 15 15 14 13 12 12 11 9 7 6 5 4 4 6 9 11 13 14 12 8
7 6 5 3 2 2 2 5 6 6 6 6 7 6 9 10 11 14 14 14 14 15 14 14 14 15 15 14 14 13 11 9 6 5 4 3 4 4 4 4 4 6 7 5
5 4 1 1 1 2 3 5 5 5 5 5 6 7 8 9 12 14 14 14 14 13 13 13 14 15 15 15 15 13 10 9 6 3 2 3 3 3 3 2 1 1 2 5
4 4 3 2 2 3 3 4 4 5 6 6 6 8 9 11 13 14 13 12 13 12 12 13 14 15 15 15 14 12 7 4 3 3 3 2 2 2 2 2 1 2 3 4
4 3 3 3 3 2 3 3 3 5 5 5 7 9 10 11 11 12 12 12 14 14 13 12 14 15 15 14 13 8 5 8 5 3 2 2 2 1 2 1 1 3 3 4
5 3 2 2 1 1 2 2 3 3 3 5 6 8 10 11 12 13 15 14 12 11 10 11 14 16 15 12 10 7 5 5 7 4 2 2 1 1 1 0 2 3 3 4
6 6 7 6 4 2 2 3 3 2 2 4 6 7 9 10 11 13 14 14 13 12 11 13 15 16 14 11 9 6 6 4 3 3 2 2 2 1 1 1 3 4 3 3
7 8 7 7 5 3 1 2 2 1 2 4 6 7 8 8 8 10 12 12 12 14 16 17 22 16 12 10 11 5 5 5 4 3 2 2 2 2 1 0 2 4 4 4
8 8 8 6 4 3 0 2 1 1 2 5 6 7 9 10 10 11 12 10 8 10 16 19 17 13 12 9 10 5 5 4 4 4 3 2 2 2 2 3 4 4 4 4
9 8 8 6 4 1 1 1 2 2 3 5 5 7 8 9 9 9 10 10 12 15 18 19 14 13 13 12 10 6 5 4 3 2 2 2 2 3 4 4 4 3 3 3
8 7 7 6 4 1 1 2 4 3 3 4 5 6 8 9 10 9 7 6 12 18 15 11 12 18 21 16 8 7 5 4 3 3 2 1 0 2 2 2 2 2 2 2
6 6 7 6 4 3 3 4 4 3 3 4 6 7 7 8 7 9 10 10 11 18 14 10 17 24 23 13 10 10 9 7 3 1 2 2 2 2 2 2 2 2 2 2
6 7 7 6 5 5 5 4 3 2 3 3 5 5 6 7 6 5 7 11 15 17 11 12 19 23 19 11 11 10 10 10 7 4 1 1 2 2 3 3 2 2 2 2
7 7 5 5 5 5 6 5 4 3 4 4 5 5 4 4 6 8 9 10 14 14 11 13 18 19 13 11 11 11 10 10 10 7 5 3 2 2 3 3 3 3 2 2
7 5 4 5 5 6 5 4 3 2 2 3 4 4 5 5 6 7 7 9 12 13 11 10 11 12 10 11 12 12 11 11 11 10 10 7 5 3 2 2 4 3 3 3
7 5 3 3 4 6 6 5 5 3 2 2 3 4 5 6 6 7 8 8 9 10 9 9 9 9 9 10 11 11 11 11 10 10 10 9 7 5 4 3 1 2 3 3
Wind_Direction
310 99 82 68 51 58 74 81 95 324 100 3 329 322 311 309 316 309 309 305 294 280 267 263 262 261 257 255 258 259 258 251 245 244 243 242 245 250 253 252 253 257 263 256
19 103 98 75 44 36 46 36 34 55 80 304 311 331 325 319 318 300 291 292 287 277 266 260 256 254 253 255 258 260 257 251 247 243 239 236 237 241 246 249 251 253 256 257
324 314 86 27 31 47 40 46 78 42 295 308 323 318 306 307 308 289 292 300 297 286 271 264 260 259 260 262 267 270 266 262 254 244 235 230 227 223 226 229 233 240 247 250
331 10 351 222 78 68 103 113 72 330 289 290 291 289 283 287 287 294 300 300 295 287 283 279 277 280 279 283 285 285 283 285 281 265 247 235 221 214 212 204 201 212 224 234
73 328 249 268 14 12 307 204 83 349 318 307 294 297 281 272 280 284 287 290 294 296 295 294 296 298 301 303 303 303 302 299 299 302 290 267 243 230 220 212 209 212 216 226
48 330 264 273 322 301 358 276 292 335 309 301 324 329 284 277 285 288 297 300 301 303 307 313 314 314 312 307 304 298 292 283 276 272 271 270 263 250 233 220 224 230 236 234
54 292 270 318 319 37 58 277 288 284 286 299 300 265 277 298 305 310 307 306 316 330 335 326 318 314 308 303 298 296 295 289 282 274 267 261 254 246 240 237 237 236 240 243
83 338 278 316 48 74 243 251 269 278 288 291 277 277 290 305 311 315 317 325 336 331 319 313 310 307 305 301 299 299 297 293 288 281 276 276 259 249 243 239 238 234 235 249
181 213 234 152 161 217 228 262 281 290 293 286 294 302 312 314 319 323 325 326 326 324 321 319 316 309 305 302 301 299 298 295 291 286 278 271 266 262 254 237 227 227 229 244
265 227 186 168 290 296 293 302 306 301 300 312 318 318 321 327 327 324 324 329 333 329 326 323 318 312 304 302 299 295 294 294 291 285 277 270 265 259 253 239 231 232 232 237
269 276 315 318 312 307 333 346 334 325 324 333 336 332 334 332 325 327 335 336 332 329 325 321 320 316 312 308 303 296 290 287 285 278 273 270 265 256 250 243 235 230 230 225
222 227 205 260 281 342 12 346 335 342 344 344 344 340 340 330 327 334 338 336 330 327 324 322 321 319 316 313 308 303 297 291 284 279 270 264 269 275 258 248 252 241 236 232
190 191 188 245 334 14 4 348 352 359 355 346 346 345 338 330 333 340 339 335 331 327 325 323 323 320 319 320 316 311 307 303 294 285 270 262 268 272 284 285 278 251 233 216
168 145 88 352 294 347 11 6 9 1 350 350 347 337 334 332 338 342 338 332 326 324 326 327 325 322 322 323 322 321 319 323 329 307 281 275 276 272 266 277 293 39 60 68
160 146 172 171 70 26 15 14 13 347 344 351 343 335 335 339 340 337 332 329 328 327 328 330 328 324 325 326 326 328 328 325 327 329 324 310 309 317 318 305 236 131 106 72
161 133 112 90 56 24 15 18 3 342 351 350 342 333 332 335 335 334 335 335 332 328 327 329 329 326 326 326 327 327 328 338 341 326 330 335 332 331 330 341 120 132 135 137
155 171 149 130 108 60 32 17 358 353 354 347 333 327 330 336 342 343 338 333 325 318 321 331 330 327 325 325 326 326 325 329 338 336 332 333 332 313 291 40 101 126 138 165
164 163 156 149 147 113 32 4 359 6 351 328 325 329 333 339 340 337 333 329 329 331 337 336 330 326 322 325 331 334 336 330 329 324 323 337 348 358 35 104 108 116 134 156
144 137 133 127 129 118 83 336 331 349 348 328 328 327 323 325 331 335 335 333 336 337 335 331 325 323 317 321 332 332 339 343 337 326 305 303 315 301 281 198 128 131 142 145
139 139 136 131 123 118 37 312 2 56 350 323 328 332 335 337 341 341 337 332 332 332 326 325 325 324 321 311 312 300 301 313 331 340 350 2 16 25 40 66 93 112 125 130
151 151 146 139 130 116 324 19 82 70 348 341 347 336 332 331 335 338 337 336 335 335 332 326 330 333 331 326 312 292 283 278 282 306 340 6 35 50 54 58 69 93 111 116
160 156 152 147 147 201 310 94 102 81 12 3 353 341 339 339 340 339 333 330 327 330 332 329 336 338 337 336 339 331 311 285 263 245 245 251 161 97 80 73 70 91 119 129
164 164 161 162 170 173 120 108 106 77 37 16 357 347 344 338 337 341 339 335 332 331 332 332 341 344 343 349 355 358 359 353 335 268 226 216 203 176 154 140 134 124 130 138
170 175 176 177 159 137 131 132 122 84 56 21 357 349 348 341 339 341 326 325 333 333 335 341 348 351 351 352 356 2 5 3 1 4 32 151 161 166 164 158 156 152 155 163
174 178 181 174 160 151 148 141 111 65 45 9 350 348 351 345 335 331 334 341 343 343 347 351 352 353 357 351 353 356 0 1 360 4 20 40 93 152 167 173 178 181 185 183
169 181 194 191 166 144 137 127 108 81 46 8 343 337 345 346 343 342 344 345 348 348 355 358 355 355 357 354 352 354 357 358 1 5 6 10 20 44 103 166 182 184 178 171
167 176 175 156 139 133 129 125 121 112 75 32 344 335 343 351 357 356 353 354 353 352 353 358 1 1 0 0 358 356 356 357 360 1 358 358 3 13 24 49 105 151 161 165